Time,TemperatureF,DewpointF,PressureIn,WindDirection,WindDirectionDegrees,WindSpeedMPH,WindSpeedGustMPH,Humidity,HourlyPrecipIn,Conditions,Clouds,dailyrainin,SoftwareType,DateUTC
2013-04-14 00:00:00,30.1,24.4,30.00,South,171,0.0,0.0,79,0.00,RA,,0.00,WeatherDisplay:10.37,2013-04-14 05:00:00,
2013-04-14 00:05:00,30.1,24.4,30.00,South,171,0.0,0.0,79,0.00,RA,,0.00,WeatherDisplay:10.37,2013-04-14 05:05:00,
2013-04-14 00:10:00,30.2,24.5,30.00,South,171,0.0,0.0,79,0.00,CLR,,0.00,WeatherDisplay:10.37,2013-04-14 05:10:00,
2013-04-14 00:15:00,30.2,24.5,30.00,South,171,0.0,0.0,79,0.00,CLR,,0.00,WeatherDisplay:10.37,2013-04-14 05:15:00,
2013-04-14 00:20:00,30.3,24.3,30.00,South,171,0.0,0.0,78,0.00,CLR,,0.00,WeatherDisplay:10.37,2013-04-14 05:20:00,
2013-04-14 00:25:00,30.5,24.5,29.99,SE,146,1.2,0.0,78,0.00,CLR,,0.00,WeatherDisplay:10.37,2013-04-14 05:25:00,
2013-04-14 00:30:00,30.7,24.7,29.99,East,101,2.3,2.3,78,0.00,CLR,,0.00,WeatherDisplay:10.37,2013-04-14 05:30:00,
2013-04-14 00:35:00,30.8,24.7,29.99,ESE,106,3.5,3.5,78,0.00,CLR,,0.00,WeatherDisplay:10.37,2013-04-14 05:35:00,
2013-04-14 00:40:00,30.8,24.7,29.99,East,96,4.6,4.6,78,0.00,CLR,,0.00,WeatherDisplay:10.37,2013-04-14 05:40:00,
2013-04-14 00:45:00,30.9,25.2,29.99,East,96,2.3,2.3,79,0.00,CLR,,0.00,WeatherDisplay:10.37,2013-04-14 05:45:00,
2013-04-14 00:50:00,31.0,25.2,29.99,East,89,3.5,3.5,79,0.00,CLR,,0.00,WeatherDisplay:10.37,2013-04-14 05:50:00,
2013-04-14 00:55:00,31.0,25.2,29.99,East,88,0.0,0.0,79,0.00,CLR,,0.00,WeatherDisplay:10.37,2013-04-14 05:55:00,
2013-04-14 01:00:00,31.1,25.0,29.99,East,100,3.5,3.5,78,0.00,CLR,,0.00,WeatherDisplay:10.37,2013-04-14 06:00:00,
2013-04-14 01:05:00,31.2,25.1,29.98,East,93,3.5,3.5,78,0.00,CLR,,0.00,WeatherDisplay:10.37,2013-04-14 06:05:00,
2013-04-14 01:10:00,31.2,24.8,29.98,East,86,5.8,5.8,77,0.00,CLR,,0.00,WeatherDisplay:10.37,2013-04-14 06:10:00,
2013-04-14 01:15:00,31.3,24.9,29.98,ESE,103,3.5,3.5,77,0.00,CLR,,0.00,WeatherDisplay:10.37,2013-04-14 06:15:00,
2013-04-14 01:20:00,31.4,25.0,29.98,East,90,3.5,3.5,77,0.00,CLR,,0.00,WeatherDisplay:10.37,2013-04-14 06:20:00,
2013-04-14 01:25:00,31.4,25.0,29.98,ESE,103,5.8,5.8,77,0.00,CLR,,0.00,WeatherDisplay:10.37,2013-04-14 06:25:00,
2013-04-14 01:30:00,31.4,25.0,29.98,East,100,3.5,3.5,77,0.00,CLR,,0.00,WeatherDisplay:10.37,2013-04-14 06:30:00,
2013-04-14 01:35:00,31.4,25.0,29.98,ESE,107,8.1,8.1,77,0.00,CLR,,0.00,WeatherDisplay:10.37,2013-04-14 06:35:00,
2013-04-14 01:40:00,31.5,25.1,29.97,East,95,6.9,6.9,77,0.00,CLR,,0.00,WeatherDisplay:10.37,2013-04-14 06:40:00,
2013-04-14 01:45:00,31.5,25.1,29.97,East,87,5.8,5.8,77,0.00,CLR,,0.00,WeatherDisplay:10.37,2013-04-14 06:45:00,
2013-04-14 01:50:00,31.5,25.1,29.97,East,92,4.6,4.6,77,0.00,CLR,,0.00,WeatherDisplay:10.37,2013-04-14 06:50:00,
2013-04-14 01:55:00,31.5,24.8,29.96,ESE,111,3.5,3.5,76,0.00,CLR,,0.00,WeatherDisplay:10.37,2013-04-14 06:55:00,
2013-04-14 02:00:00,31.5,24.8,29.96,ESE,111,11.5,11.5,76,0.00,CLR,,0.00,WeatherDisplay:10.37,2013-04-14 07:00:00,
2013-04-14 02:05:00,31.5,24.8,29.95,East,84,6.9,6.9,76,0.00,CLR,,0.00,WeatherDisplay:10.37,2013-04-14 07:05:00,
2013-04-14 02:10:00,31.5,24.8,29.95,East,98,3.0,3.0,76,0.00,CLR,,0.00,WeatherDisplay:10.37,2013-04-14 07:10:00,
2013-04-14 02:15:00,31.5,24.8,29.95,East,91,7.0,7.0,76,0.00,CLR,,0.00,WeatherDisplay:10.37,2013-04-14 07:15:00,
2013-04-14 02:20:00,31.5,24.8,29.94,East,98,5.8,5.8,76,0.00,CLR,,0.00,WeatherDisplay:10.37,2013-04-14 07:20:00,
2013-04-14 02:25:00,31.6,24.6,29.94,East,86,3.5,3.5,75,0.00,CLR,,0.00,WeatherDisplay:10.37,2013-04-14 07:25:00,
2013-04-14 02:30:00,31.6,24.6,29.94,East,91,5.8,5.8,75,0.00,CLR,,0.00,WeatherDisplay:10.37,2013-04-14 07:30:00,
2013-04-14 02:35:00,31.7,24.4,29.94,East,92,6.0,6.0,74,0.00,CLR,,0.00,WeatherDisplay:10.37,2013-04-14 07:35:00,
2013-04-14 02:41:00,31.7,24.4,29.94,East,91,6.9,6.9,74,0.00,CLR,,0.00,WeatherDisplay:10.37,2013-04-14 07:41:00,
2013-04-14 02:46:00,31.8,24.5,29.94,East,96,1.0,1.0,74,0.00,CLR,,0.00,WeatherDisplay:10.37,2013-04-14 07:46:00,
2013-04-14 02:51:00,31.8,24.5,29.94,ESE,103,3.5,4.9,74,0.00,CLR,,0.00,WeatherDisplay:10.37,2013-04-14 07:51:00,
2013-04-14 02:56:00,31.8,24.1,29.93,ESE,104,9.2,9.2,73,0.00,CLR,,0.00,WeatherDisplay:10.37,2013-04-14 07:56:00,
2013-04-14 03:01:00,31.8,24.1,29.94,East,94,5.8,5.8,73,0.00,CLR,,0.00,WeatherDisplay:10.37,2013-04-14 08:01:00,
2013-04-14 03:06:00,31.8,24.5,29.94,ESE,102,10.4,10.4,74,0.00,CLR,,0.00,WeatherDisplay:10.37,2013-04-14 08:06:00,
2013-04-14 03:11:00,31.8,24.5,29.94,East,90,4.6,4.6,74,0.00,CLR,,0.00,WeatherDisplay:10.37,2013-04-14 08:11:00,
2013-04-14 03:16:00,31.8,24.5,29.94,East,83,9.2,9.2,74,0.00,CLR,,0.00,WeatherDisplay:10.37,2013-04-14 08:16:00,
2013-04-14 03:21:00,31.8,24.1,29.95,ESE,121,11.5,11.5,73,0.00,CLR,,0.00,WeatherDisplay:10.37,2013-04-14 08:21:00,
2013-04-14 03:26:00,31.8,24.1,29.95,East,101,9.2,9.2,73,0.00,CLR,,0.00,WeatherDisplay:10.37,2013-04-14 08:26:00,
2013-04-14 03:31:00,31.9,24.2,29.94,ESE,109,6.9,6.9,73,0.00,CLR,,0.00,WeatherDisplay:10.37,2013-04-14 08:31:00,
2013-04-14 03:37:00,31.8,23.8,29.94,East,90,10.4,10.4,72,0.00,CLR,,0.00,WeatherDisplay:10.37,2013-04-14 08:37:00,
2013-04-14 03:42:00,31.9,23.6,29.94,ENE,73,11.5,11.5,71,0.00,CLR,,0.00,WeatherDisplay:10.37,2013-04-14 08:42:00,
2013-04-14 03:47:00,31.8,23.1,29.94,ESE,103,11.5,11.5,70,0.00,CLR,,0.00,WeatherDisplay:10.37,2013-04-14 08:47:00,
2013-04-14 03:52:00,31.8,23.1,29.94,East,80,5.8,5.8,70,0.00,CLR,,0.00,WeatherDisplay:10.37,2013-04-14 08:52:00,
2013-04-14 03:57:00,31.7,23.0,29.94,East,96,9.2,9.2,70,0.00,CLR,,0.00,WeatherDisplay:10.37,2013-04-14 08:57:00,
2013-04-14 04:02:00,31.7,23.0,29.94,East,84,6.9,6.9,70,0.00,CLR,,0.00,WeatherDisplay:10.37,2013-04-14 09:02:00,
2013-04-14 04:07:00,31.7,23.0,29.94,East,87,6.9,6.9,70,0.00,CLR,,0.00,WeatherDisplay:10.37,2013-04-14 09:07:00,
2013-04-14 04:12:00,31.5,23.2,29.94,ESE,109,3.5,3.5,71,0.00,CLR,,0.00,WeatherDisplay:10.37,2013-04-14 09:12:00,
2013-04-14 04:17:00,31.4,23.4,29.93,East,86,5.0,5.0,72,0.00,CLR,,0.00,WeatherDisplay:10.37,2013-04-14 09:17:00,
2013-04-14 04:22:00,31.2,23.2,29.93,ESE,104,11.5,11.5,72,0.00,CLR,,0.00,WeatherDisplay:10.37,2013-04-14 09:22:00,
2013-04-14 04:27:00,31.0,23.7,29.93,ESE,118,13.8,13.8,74,0.00,CLR,,0.00,WeatherDisplay:10.37,2013-04-14 09:27:00,
2013-04-14 04:32:00,30.7,23.7,29.93,East,92,5.8,5.8,75,0.00,CLR,,0.00,WeatherDisplay:10.37,2013-04-14 09:32:00,
2013-04-14 04:37:00,30.5,24.1,29.92,ESE,123,15.0,15.0,77,0.00,CLR,,0.00,WeatherDisplay:10.37,2013-04-14 09:37:00,
2013-04-14 04:42:00,30.1,24.1,29.92,ENE,71,13.8,13.8,78,0.00,CLR,,0.00,WeatherDisplay:10.37,2013-04-14 09:42:00,
2013-04-14 04:47:00,29.9,24.2,29.93,ESE,108,6.9,6.9,79,0.00,CLR,,0.00,WeatherDisplay:10.37,2013-04-14 09:47:00,
2013-04-14 04:52:00,29.7,24.3,29.93,East,98,5.8,5.8,80,0.00,CLR,,0.00,WeatherDisplay:10.37,2013-04-14 09:52:00,
2013-04-14 04:57:00,29.7,24.6,29.93,East,90,5.8,5.8,81,0.00,CLR,,0.00,WeatherDisplay:10.37,2013-04-14 09:57:00,
2013-04-14 05:02:00,29.7,24.6,29.93,East,86,9.2,9.2,81,0.00,CLR,,0.00,WeatherDisplay:10.37,2013-04-14 10:02:00,
2013-04-14 05:07:00,29.7,24.6,29.93,East,88,5.0,5.0,81,0.00,CLR,,0.00,WeatherDisplay:10.37,2013-04-14 10:07:00,
2013-04-14 05:12:00,29.7,24.6,29.93,East,93,11.5,11.5,81,0.00,CLR,,0.00,WeatherDisplay:10.37,2013-04-14 10:12:00,
2013-04-14 05:17:00,29.8,24.4,29.92,ESE,105,11.0,11.0,80,0.00,CLR,,0.00,WeatherDisplay:10.37,2013-04-14 10:17:00,
2013-04-14 05:22:00,29.8,24.4,29.93,East,94,6.9,6.9,80,0.00,CLR,,0.00,WeatherDisplay:10.37,2013-04-14 10:22:00,
2013-04-14 05:27:00,29.8,24.4,29.93,ESE,113,9.2,9.2,80,0.00,CLR,,0.00,WeatherDisplay:10.37,2013-04-14 10:27:00,
2013-04-14 05:32:00,29.7,24.6,29.93,East,86,12.7,12.7,81,0.00,CLR,,0.00,WeatherDisplay:10.37,2013-04-14 10:32:00,
2013-04-14 05:37:00,29.4,24.6,29.92,East,90,11.5,11.5,82,0.00,CLR,,0.00,WeatherDisplay:10.37,2013-04-14 10:37:00,
2013-04-14 05:42:00,29.2,24.7,29.92,East,92,10.4,10.4,83,0.00,CLR,,0.00,WeatherDisplay:10.37,2013-04-14 10:42:00,
2013-04-14 05:47:00,28.9,24.7,29.92,ESE,103,11.5,11.5,84,0.00,CLR,,0.00,WeatherDisplay:10.37,2013-04-14 10:47:00,
2013-04-14 05:52:00,28.8,24.6,29.91,ENE,73,11.5,11.5,84,0.00,CLR,,0.00,WeatherDisplay:10.37,2013-04-14 10:52:00,
2013-04-14 05:57:00,28.8,24.9,29.91,East,81,12.7,12.7,85,0.00,CLR,,0.00,WeatherDisplay:10.37,2013-04-14 10:57:00,
2013-04-14 06:02:00,28.8,24.9,29.90,East,94,11.5,11.5,85,0.00,CLR,,0.00,WeatherDisplay:10.37,2013-04-14 11:02:00,
2013-04-14 06:07:00,28.8,24.9,29.90,East,88,13.8,13.8,85,0.00,CLR,,0.00,WeatherDisplay:10.37,2013-04-14 11:07:00,
2013-04-14 06:13:00,28.8,24.9,29.90,East,92,10.4,10.4,85,0.00,CLR,,0.00,WeatherDisplay:10.37,2013-04-14 11:13:00,
2013-04-14 06:18:00,28.8,24.9,29.90,East,81,12.7,12.7,85,0.00,CLR,,0.00,WeatherDisplay:10.37,2013-04-14 11:18:00,
2013-04-14 06:23:00,28.8,24.6,29.90,East,82,11.5,11.5,84,0.00,CLR,,0.00,WeatherDisplay:10.37,2013-04-14 11:23:00,
2013-04-14 06:28:00,28.9,24.7,29.90,East,88,11.5,11.5,84,0.00,CLR,,0.00,WeatherDisplay:10.37,2013-04-14 11:28:00,
2013-04-14 06:33:00,29.0,24.5,29.89,East,82,13.8,13.8,83,0.00,CLR,,0.00,WeatherDisplay:10.37,2013-04-14 11:33:00,
2013-04-14 06:38:00,29.2,24.4,29.89,NE,56,13.8,13.8,82,0.00,CLR,,0.00,WeatherDisplay:10.37,2013-04-14 11:38:00,
2013-04-14 06:43:00,29.3,24.2,29.89,ENE,77,8.1,8.1,81,0.00,CLR,,0.00,WeatherDisplay:10.37,2013-04-14 11:43:00,
2013-04-14 06:48:00,29.4,24.3,29.89,East,101,5.8,5.8,81,0.00,CLR,,0.00,WeatherDisplay:10.37,2013-04-14 11:48:00,
2013-04-14 06:53:00,29.5,24.1,29.89,ENE,63,9.2,9.2,80,0.00,CLR,,0.00,WeatherDisplay:10.37,2013-04-14 11:53:00,
2013-04-14 06:58:00,29.6,24.2,29.89,East,91,10.4,10.4,80,0.00,CLR,,0.00,WeatherDisplay:10.37,2013-04-14 11:58:00,
2013-04-14 07:03:00,29.7,24.0,29.89,East,83,7.0,7.0,79,0.00,CLR,,0.00,WeatherDisplay:10.37,2013-04-14 12:03:00,
2013-04-14 07:08:00,29.8,24.1,29.89,East,101,11.5,11.5,79,0.00,CLR,,0.00,WeatherDisplay:10.37,2013-04-14 12:08:00,
2013-04-14 07:13:00,29.9,23.9,29.89,East,88,12.7,12.7,78,0.00,CLR,,0.00,WeatherDisplay:10.37,2013-04-14 12:13:00,
2013-04-14 07:18:00,30.1,23.8,29.89,ENE,78,6.9,6.9,77,0.00,CLR,,0.00,WeatherDisplay:10.37,2013-04-14 12:18:00,
2013-04-14 07:23:00,30.2,23.5,29.89,ENE,78,12.7,12.7,76,0.00,CLR,,0.00,WeatherDisplay:10.37,2013-04-14 12:23:00,
2013-04-14 07:28:00,30.3,23.6,29.88,NE,46,8.0,8.0,76,0.00,CLR,,0.00,WeatherDisplay:10.37,2013-04-14 12:28:00,
2013-04-14 07:33:00,30.3,23.3,29.88,ENE,57,20.7,20.7,75,0.00,CLR,,0.00,WeatherDisplay:10.37,2013-04-14 12:33:00,
2013-04-14 07:38:00,30.5,23.2,29.88,East,91,15.0,15.0,74,0.00,CLR,,0.00,WeatherDisplay:10.37,2013-04-14 12:38:00,
2013-04-14 07:43:00,30.6,23.3,29.88,East,94,17.3,17.3,74,0.00,CLR,,0.00,WeatherDisplay:10.37,2013-04-14 12:43:00,
2013-04-14 07:48:00,30.7,23.1,29.88,East,89,12.7,12.7,73,0.00,CLR,,0.00,WeatherDisplay:10.37,2013-04-14 12:48:00,
2013-04-14 07:53:00,30.7,23.1,29.88,East,101,6.0,6.8,73,0.00,CLR,,0.00,WeatherDisplay:10.37,2013-04-14 12:53:00,
2013-04-14 07:58:00,30.8,22.8,29.87,East,94,19.6,19.6,72,0.00,CLR,,0.00,WeatherDisplay:10.37,2013-04-14 12:58:00,
2013-04-14 08:03:00,30.8,22.8,29.87,East,91,16.1,16.1,72,0.00,CLR,,0.00,WeatherDisplay:10.37,2013-04-14 13:03:00,
2013-04-14 08:08:00,30.9,22.9,29.86,ESE,121,12.7,12.7,72,0.00,CLR,,0.00,WeatherDisplay:10.37,2013-04-14 13:08:00,
2013-04-14 08:13:00,31.0,23.0,29.86,East,90,11.5,11.5,72,0.00,CLR,,0.00,WeatherDisplay:10.37,2013-04-14 13:13:00,
2013-04-14 08:18:00,31.0,22.7,29.86,ENE,75,19.6,19.6,71,0.00,CLR,,0.00,WeatherDisplay:10.37,2013-04-14 13:18:00,
2013-04-14 08:23:00,31.0,22.7,29.85,East,86,11.5,11.5,71,0.00,CLR,,0.00,WeatherDisplay:10.37,2013-04-14 13:23:00,
2013-04-14 08:28:00,31.0,22.7,29.84,East,84,12.7,12.7,71,0.00,CLR,,0.00,WeatherDisplay:10.37,2013-04-14 13:28:00,
2013-04-14 08:33:00,31.0,23.0,29.84,East,88,13.8,13.8,72,0.00,CLR,,0.00,WeatherDisplay:10.37,2013-04-14 13:33:00,
2013-04-14 08:38:00,31.0,22.7,29.84,East,88,19.6,19.6,71,0.00,CLR,,0.00,WeatherDisplay:10.37,2013-04-14 13:38:00,
2013-04-14 08:43:00,30.9,22.6,29.84,SE,143,19.6,19.6,71,0.00,CLR,,0.00,WeatherDisplay:10.37,2013-04-14 13:43:00,
2013-04-14 08:48:00,30.7,23.1,29.84,SE,137,27.6,27.6,73,0.00,CLR,,0.00,WeatherDisplay:10.37,2013-04-14 13:48:00,
2013-04-14 08:53:00,30.5,23.2,29.83,East,90,11.5,11.5,74,0.00,CLR,,0.00,WeatherDisplay:10.37,2013-04-14 13:53:00,
2013-04-14 08:58:00,30.1,23.4,29.83,ESE,109,21.9,21.9,76,0.00,CLR,,0.00,WeatherDisplay:10.37,2013-04-14 13:58:00,
2013-04-14 09:03:00,29.6,23.9,29.82,East,84,21.9,21.9,79,0.00,CLR,,0.00,WeatherDisplay:10.37,2013-04-14 14:03:00,
2013-04-14 09:08:00,29.4,24.3,29.82,ESE,106,12.7,12.7,81,0.00,CLR,,0.00,WeatherDisplay:10.37,2013-04-14 14:08:00,
2013-04-14 09:13:00,29.3,24.5,29.82,ESE,105,19.6,19.6,82,0.00,CLR,,0.00,WeatherDisplay:10.37,2013-04-14 14:13:00,
2013-04-14 09:18:00,29.2,25.0,29.81,East,84,20.0,20.0,84,0.00,CLR,,0.00,WeatherDisplay:10.37,2013-04-14 14:18:00,
2013-04-14 09:23:00,29.2,25.3,29.81,East,83,19.6,19.6,85,0.00,CLR,,0.00,WeatherDisplay:10.37,2013-04-14 14:23:00,
2013-04-14 09:28:00,29.0,25.3,29.81,East,88,18.4,18.4,86,0.00,CLR,,0.00,WeatherDisplay:10.37,2013-04-14 14:28:00,
2013-04-14 09:33:00,29.0,25.3,29.80,East,96,19.6,19.6,86,0.00,CLR,,0.00,WeatherDisplay:10.37,2013-04-14 14:33:00,
2013-04-14 09:38:00,29.0,25.6,29.79,East,101,19.6,19.6,87,0.00,CLR,,0.00,WeatherDisplay:10.37,2013-04-14 14:38:00,
2013-04-14 09:43:00,29.1,25.7,29.79,ENE,62,11.5,11.5,87,0.00,CLR,,0.00,WeatherDisplay:10.37,2013-04-14 14:43:00,
2013-04-14 09:48:00,29.2,25.8,29.78,East,91,19.6,19.6,87,0.00,CLR,,0.00,WeatherDisplay:10.37,2013-04-14 14:48:00,
2013-04-14 09:53:00,29.2,25.8,29.78,East,101,26.5,26.5,87,0.00,CLR,,0.00,WeatherDisplay:10.37,2013-04-14 14:53:00,
2013-04-14 09:58:00,29.3,25.9,29.77,East,87,19.6,19.6,87,0.00,CLR,,0.00,WeatherDisplay:10.37,2013-04-14 14:58:00,
2013-04-14 10:03:00,29.4,26.0,29.78,ESE,109,24.2,24.2,87,0.00,CLR,,0.00,WeatherDisplay:10.37,2013-04-14 15:03:00,
2013-04-14 10:08:00,29.6,26.2,29.77,ENE,78,19.6,19.6,87,0.00,CLR,,0.00,WeatherDisplay:10.37,2013-04-14 15:08:00,
2013-04-14 10:13:00,29.8,26.4,29.77,ENE,59,16.1,16.1,87,0.00,CLR,,0.00,WeatherDisplay:10.37,2013-04-14 15:13:00,
2013-04-14 10:18:00,29.9,26.5,29.77,East,82,13.8,13.8,87,0.00,CLR,,0.00,WeatherDisplay:10.37,2013-04-14 15:18:00,
2013-04-14 10:23:00,30.0,26.6,29.77,ESE,102,19.6,19.6,87,0.00,CLR,,0.00,WeatherDisplay:10.37,2013-04-14 15:23:00,
2013-04-14 10:28:00,30.0,26.6,29.77,East,86,12.7,12.7,87,0.00,CLR,,0.00,WeatherDisplay:10.37,2013-04-14 15:28:00,
2013-04-14 10:33:00,30.1,26.7,29.77,NNE,24,17.3,17.3,87,0.00,CLR,,0.00,WeatherDisplay:10.37,2013-04-14 15:33:00,
2013-04-14 10:38:00,30.1,26.7,29.77,East,83,19.6,19.6,87,0.00,CLR,,0.00,WeatherDisplay:10.37,2013-04-14 15:38:00,
2013-04-14 10:43:00,30.2,26.8,29.76,East,86,13.8,13.8,87,0.00,CLR,,0.00,WeatherDisplay:10.37,2013-04-14 15:43:00,
2013-04-14 10:49:00,30.3,26.9,29.75,East,101,20.7,20.7,87,0.00,CLR,,0.00,WeatherDisplay:10.37,2013-04-14 15:49:00,
2013-04-14 10:54:00,30.3,26.9,29.75,ENE,69,17.3,17.3,87,0.00,CLR,,0.00,WeatherDisplay:10.37,2013-04-14 15:54:00,
2013-04-14 10:59:00,30.4,27.0,29.75,ESE,115,17.3,17.3,87,0.00,CLR,,0.00,WeatherDisplay:10.37,2013-04-14 15:59:00,
2013-04-14 11:04:00,30.4,27.3,29.74,East,92,16.1,16.1,88,0.00,CLR,,0.00,WeatherDisplay:10.37,2013-04-14 16:04:00,
2013-04-14 11:09:00,30.5,27.4,29.75,NE,56,19.6,19.6,88,0.00,CLR,,0.00,WeatherDisplay:10.37,2013-04-14 16:09:00,
2013-04-14 11:14:00,30.5,27.4,29.75,ESE,103,18.4,18.4,88,0.00,CLR,,0.00,WeatherDisplay:10.37,2013-04-14 16:14:00,
2013-04-14 11:19:00,30.5,27.4,29.75,NE,42,27.6,27.6,88,0.00,CLR,,0.00,WeatherDisplay:10.37,2013-04-14 16:19:00,
2013-04-14 11:24:00,30.5,27.4,29.75,ESE,103,16.1,16.1,88,0.00,CLR,,0.00,WeatherDisplay:10.37,2013-04-14 16:24:00,
2013-04-14 11:29:00,30.6,27.5,29.75,ESE,113,16.1,16.1,88,0.01,RA,,0.01,WeatherDisplay:10.37,2013-04-14 16:29:00,
2013-04-14 11:34:00,30.6,27.7,29.75,East,91,0.0,0.0,89,0.01,RA,,0.01,WeatherDisplay:10.37,2013-04-14 16:34:00,
2013-04-14 11:39:00,30.6,27.7,29.75,ENE,63,0.0,0.0,89,0.01,,,0.01,WeatherDisplay:10.37,2013-04-14 16:39:00,
2013-04-14 11:44:00,30.7,27.8,29.75,East,97,0.0,0.0,89,0.02,RA,,0.02,WeatherDisplay:10.37,2013-04-14 16:44:00,
2013-04-14 11:49:00,30.7,27.8,29.75,ESE,103,0.0,0.0,89,0.02,RA,,0.02,WeatherDisplay:10.37,2013-04-14 16:49:00,
2013-04-14 11:54:00,30.8,27.9,29.74,East,92,0.0,0.0,89,0.02,CLR,,0.02,WeatherDisplay:10.37,2013-04-14 16:54:00,
2013-04-14 11:59:00,30.8,27.9,29.74,ENE,78,0.0,0.0,89,0.03,RA,,0.03,WeatherDisplay:10.37,2013-04-14 16:59:00,
2013-04-14 12:04:00,30.9,28.0,29.74,East,80,0.0,0.0,89,0.03,RA,,0.03,WeatherDisplay:10.37,2013-04-14 17:04:00,
2013-04-14 12:09:00,30.8,27.9,29.74,ESE,113,0.0,0.0,89,0.03,RA,,0.03,WeatherDisplay:10.37,2013-04-14 17:09:00,
2013-04-14 12:14:00,30.9,28.0,29.73,ENE,64,0.0,0.0,89,0.03,CLR,,0.03,WeatherDisplay:10.37,2013-04-14 17:14:00,
2013-04-14 12:19:00,31.0,28.1,29.73,East,83,0.0,0.0,89,0.03,CLR,,0.03,WeatherDisplay:10.37,2013-04-14 17:19:00,
2013-04-14 12:24:00,31.1,28.2,29.73,ENE,70,0.0,0.0,89,0.04,RA,,0.04,WeatherDisplay:10.37,2013-04-14 17:24:00,
2013-04-14 12:29:00,31.2,28.3,29.72,East,94,0.0,0.0,89,0.03,RA,,0.04,WeatherDisplay:10.37,2013-04-14 17:29:00,
2013-04-14 12:34:00,31.2,28.3,29.71,ENE,74,0.0,0.0,89,0.04,RA,,0.05,WeatherDisplay:10.37,2013-04-14 17:34:00,
2013-04-14 12:39:00,31.3,28.4,29.71,East,91,0.0,0.0,89,0.05,RA,,0.06,WeatherDisplay:10.37,2013-04-14 17:39:00,
2013-04-14 12:44:00,31.4,28.8,29.70,East,100,0.0,0.0,90,0.05,RA,,0.07,WeatherDisplay:10.37,2013-04-14 17:44:00,
2013-04-14 12:49:00,31.4,28.8,29.70,East,96,0.0,0.0,90,0.06,RA,,0.08,WeatherDisplay:10.37,2013-04-14 17:49:00,
2013-04-14 12:54:00,31.4,28.8,29.70,SE,129,0.0,0.0,90,0.07,RA,,0.09,WeatherDisplay:10.37,2013-04-14 17:54:00,
2013-04-14 12:59:00,31.5,28.9,29.70,East,96,0.0,0.0,90,0.07,RA,,0.10,WeatherDisplay:10.37,2013-04-14 17:59:00,
2013-04-14 13:04:00,31.5,28.6,29.69,East,80,0.0,0.0,89,0.08,RA,,0.11,WeatherDisplay:10.37,2013-04-14 18:04:00,
2013-04-14 13:09:00,31.5,28.6,29.69,East,94,0.0,0.0,89,0.08,RA,,0.11,WeatherDisplay:10.37,2013-04-14 18:09:00,
2013-04-14 13:14:00,31.5,28.6,29.68,ESE,103,0.0,0.0,89,0.09,RA,,0.12,WeatherDisplay:10.37,2013-04-14 18:14:00,
2013-04-14 13:19:00,31.5,28.6,29.67,East,83,0.0,0.0,89,0.10,RA,,0.13,WeatherDisplay:10.37,2013-04-14 18:19:00,
2013-04-14 13:24:00,31.5,28.6,29.67,ESE,120,0.0,0.0,89,0.10,RA,,0.14,WeatherDisplay:10.37,2013-04-14 18:24:00,
2013-04-14 13:29:00,31.5,28.6,29.67,ENE,59,0.0,0.0,89,0.10,RA,,0.14,WeatherDisplay:10.37,2013-04-14 18:29:00,
2013-04-14 13:34:00,31.6,28.7,29.67,ESE,102,0.0,0.0,89,0.10,RA,,0.15,WeatherDisplay:10.37,2013-04-14 18:34:00,
2013-04-14 13:39:00,31.5,28.6,29.67,ENE,76,0.0,0.0,89,0.09,RA,,0.15,WeatherDisplay:10.37,2013-04-14 18:39:00,
2013-04-14 13:44:00,31.6,28.7,29.67,ENE,72,0.0,0.0,89,0.08,CLR,,0.15,WeatherDisplay:10.37,2013-04-14 18:44:00,
2013-04-14 13:49:00,31.6,28.7,29.67,East,81,0.0,0.0,89,0.07,CLR,,0.15,WeatherDisplay:10.37,2013-04-14 18:49:00,
2013-04-14 13:54:00,31.6,28.7,29.67,West,269,0.0,0.0,89,0.07,RA,,0.16,WeatherDisplay:10.37,2013-04-14 18:54:00,
2013-04-14 13:59:00,31.6,28.7,29.67,East,80,0.0,0.0,89,0.06,RA,,0.16,WeatherDisplay:10.37,2013-04-14 18:59:00,
2013-04-14 14:04:00,31.7,28.8,29.68,East,80,0.0,0.0,89,0.06,RA,,0.17,WeatherDisplay:10.37,2013-04-14 19:04:00,
2013-04-14 14:09:00,31.7,28.8,29.67,East,80,0.0,0.0,89,0.07,RA,,0.18,WeatherDisplay:10.37,2013-04-14 19:09:00,
2013-04-14 14:14:00,31.8,28.9,29.66,East,80,0.0,0.0,89,0.07,RA,,0.19,WeatherDisplay:10.37,2013-04-14 19:14:00,
2013-04-14 14:19:00,31.7,29.1,29.66,East,80,0.0,0.0,90,0.06,RA,,0.19,WeatherDisplay:10.37,2013-04-14 19:19:00,
2013-04-14 14:24:00,31.7,29.1,29.66,East,80,0.0,0.0,90,0.05,CLR,,0.19,WeatherDisplay:10.37,2013-04-14 19:24:00,
2013-04-14 14:29:00,31.8,29.2,29.66,East,80,0.0,0.0,90,0.06,RA,,0.20,WeatherDisplay:10.37,2013-04-14 19:29:00,
2013-04-14 14:34:00,31.9,29.3,29.66,East,80,0.0,0.0,90,0.05,RA,,0.20,WeatherDisplay:10.37,2013-04-14 19:34:00,
2013-04-14 14:39:00,31.9,29.3,29.66,East,80,0.0,0.0,90,0.05,,,0.20,WeatherDisplay:10.37,2013-04-14 19:39:00,
2013-04-14 14:44:00,31.9,29.0,29.66,East,80,0.0,0.0,89,0.05,CLR,,0.20,WeatherDisplay:10.37,2013-04-14 19:44:00,
2013-04-14 14:49:00,31.9,29.3,29.66,East,80,0.0,0.0,90,0.05,CLR,,0.20,WeatherDisplay:10.37,2013-04-14 19:49:00,
2013-04-14 14:54:00,31.9,29.3,29.65,East,80,0.0,0.0,90,0.04,CLR,,0.20,WeatherDisplay:10.37,2013-04-14 19:54:00,
2013-04-14 14:59:00,31.9,29.3,29.64,East,80,0.0,0.0,90,0.04,CLR,,0.20,WeatherDisplay:10.37,2013-04-14 19:59:00,
2013-04-14 15:05:00,31.9,29.3,29.64,East,80,0.0,0.0,90,0.03,CLR,,0.20,WeatherDisplay:10.37,2013-04-14 20:05:00,
2013-04-14 15:09:00,31.9,29.3,29.64,East,80,0.0,0.0,90,0.03,RA,,0.21,WeatherDisplay:10.37,2013-04-14 20:09:00,
2013-04-14 15:15:00,31.9,29.3,29.63,East,80,0.0,0.0,90,0.02,RA,,0.21,WeatherDisplay:10.37,2013-04-14 20:15:00,
2013-04-14 15:20:00,31.8,29.2,29.64,East,80,0.0,0.0,90,0.02,CLR,,0.21,WeatherDisplay:10.37,2013-04-14 20:20:00,
2013-04-14 15:25:00,31.9,29.3,29.63,East,80,0.0,0.0,90,0.02,CLR,,0.21,WeatherDisplay:10.37,2013-04-14 20:25:00,
2013-04-14 15:30:00,31.8,29.2,29.62,East,80,0.0,0.0,90,0.01,CLR,,0.21,WeatherDisplay:10.37,2013-04-14 20:30:00,
2013-04-14 15:35:00,31.9,29.3,29.61,East,80,0.0,0.0,90,0.01,CLR,,0.21,WeatherDisplay:10.37,2013-04-14 20:35:00,
2013-04-14 15:40:00,31.9,29.3,29.61,East,80,0.0,0.0,90,0.02,RA,,0.22,WeatherDisplay:10.37,2013-04-14 20:40:00,
2013-04-14 15:45:00,31.9,29.3,29.59,East,80,0.0,0.0,90,0.02,RA,,0.22,WeatherDisplay:10.37,2013-04-14 20:45:00,
2013-04-14 15:50:00,31.9,29.3,29.59,East,80,0.0,0.0,90,0.02,CLR,,0.22,WeatherDisplay:10.37,2013-04-14 20:50:00,
2013-04-14 15:55:00,31.9,29.3,29.60,East,80,0.0,0.0,90,0.02,CLR,,0.22,WeatherDisplay:10.37,2013-04-14 20:55:00,
2013-04-14 16:00:00,31.9,29.3,29.60,East,81,0.0,0.0,90,0.02,CLR,,0.22,WeatherDisplay:10.37,2013-04-14 21:00:00,
2013-04-14 16:05:00,31.9,29.3,29.60,East,80,0.0,0.0,90,0.03,RA,,0.23,WeatherDisplay:10.37,2013-04-14 21:05:00,
2013-04-14 16:10:00,32.0,29.4,29.59,East,80,0.0,0.0,90,0.02,RA,,0.23,WeatherDisplay:10.37,2013-04-14 21:10:00,
2013-04-14 16:15:00,31.9,29.3,29.59,East,80,0.0,0.0,90,0.03,RA,,0.24,WeatherDisplay:10.37,2013-04-14 21:15:00,
2013-04-14 16:20:00,31.9,29.3,29.59,East,81,0.0,0.0,90,0.04,RA,,0.25,WeatherDisplay:10.37,2013-04-14 21:20:00,
2013-04-14 16:25:00,32.0,29.4,29.59,East,80,0.0,0.0,90,0.04,RA,,0.25,WeatherDisplay:10.37,2013-04-14 21:25:00,
2013-04-14 16:30:00,32.0,29.4,29.59,East,81,0.0,0.0,90,0.04,CLR,,0.25,WeatherDisplay:10.37,2013-04-14 21:30:00,
2013-04-14 16:35:00,32.0,29.4,29.59,East,81,0.0,0.0,90,0.05,RA,,0.26,WeatherDisplay:10.37,2013-04-14 21:35:00,
2013-04-14 16:40:00,32.0,29.4,29.59,East,81,0.0,0.0,90,0.04,RA,,0.26,WeatherDisplay:10.37,2013-04-14 21:40:00,
2013-04-14 16:45:00,32.0,29.4,29.58,East,80,0.0,0.0,90,0.04,CLR,,0.26,WeatherDisplay:10.37,2013-04-14 21:45:00,
2013-04-14 16:50:00,32.0,29.4,29.58,East,81,0.0,0.0,90,0.04,CLR,,0.26,WeatherDisplay:10.37,2013-04-14 21:50:00,
2013-04-14 16:55:00,32.0,29.4,29.57,East,81,0.0,0.0,90,0.04,CLR,,0.26,WeatherDisplay:10.37,2013-04-14 21:55:00,
2013-04-14 17:00:00,32.1,29.5,29.57,East,80,0.0,0.0,90,0.04,CLR,,0.26,WeatherDisplay:10.37,2013-04-14 22:00:00,
2013-04-14 17:05:00,32.1,29.5,29.57,East,80,0.0,0.0,90,0.03,CLR,,0.26,WeatherDisplay:10.37,2013-04-14 22:05:00,
2013-04-14 17:10:00,32.1,29.5,29.57,East,81,0.0,0.0,90,0.03,CLR,,0.26,WeatherDisplay:10.37,2013-04-14 22:10:00,
2013-04-14 17:15:00,32.0,29.4,29.56,East,81,0.0,0.0,90,0.02,CLR,,0.27,WeatherDisplay:10.37,2013-04-14 22:15:00,
2013-04-14 17:20:00,32.0,29.4,29.56,East,80,0.0,0.0,90,0.02,RA,,0.27,WeatherDisplay:10.37,2013-04-14 22:20:00,
2013-04-14 17:25:00,32.0,29.4,29.56,East,81,0.0,0.0,90,0.02,RA,,0.27,WeatherDisplay:10.37,2013-04-14 22:25:00,
2013-04-14 17:30:00,32.0,29.4,29.56,East,81,0.0,0.0,90,0.03,RA,,0.28,WeatherDisplay:10.37,2013-04-14 22:30:00,
2013-04-14 17:35:00,32.1,29.5,29.55,East,81,0.0,0.0,90,0.03,RA,,0.29,WeatherDisplay:10.37,2013-04-14 22:35:00,
2013-04-14 17:40:00,32.1,29.5,29.56,East,80,0.0,0.0,90,0.04,RA,,0.30,WeatherDisplay:10.37,2013-04-14 22:40:00,
2013-04-14 17:45:00,32.1,29.5,29.56,East,81,0.0,0.0,90,0.04,RA,,0.30,WeatherDisplay:10.37,2013-04-14 22:45:00,
2013-04-14 17:50:00,32.1,29.5,29.56,East,80,0.0,0.0,90,0.05,RA,,0.31,WeatherDisplay:10.37,2013-04-14 22:50:00,
2013-04-14 17:55:00,32.1,29.8,29.55,East,81,0.0,0.0,91,0.05,RA,,0.31,WeatherDisplay:10.37,2013-04-14 22:55:00,
2013-04-14 18:00:00,32.1,29.8,29.56,East,80,0.0,0.0,91,0.06,RA,,0.32,WeatherDisplay:10.37,2013-04-14 23:00:00,
2013-04-14 18:05:00,32.1,29.8,29.56,East,82,0.0,0.0,91,0.06,RA,,0.32,WeatherDisplay:10.37,2013-04-14 23:05:00,
2013-04-14 18:10:00,32.2,29.9,29.56,East,79,0.0,0.0,91,0.07,RA,,0.33,WeatherDisplay:10.37,2013-04-14 23:10:00,
2013-04-14 18:15:00,32.2,29.9,29.55,East,82,0.0,0.0,91,0.08,RA,,0.34,WeatherDisplay:10.37,2013-04-14 23:15:00,
2013-04-14 18:20:00,32.3,30.0,29.54,East,82,0.0,0.0,91,0.08,RA,,0.35,WeatherDisplay:10.37,2013-04-14 23:20:00,
2013-04-14 18:25:00,32.3,30.0,29.55,East,82,0.0,0.0,91,0.08,RA,,0.35,WeatherDisplay:10.37,2013-04-14 23:25:00,
2013-04-14 18:30:00,32.3,30.0,29.55,East,94,0.0,0.0,91,0.07,,,0.35,WeatherDisplay:10.37,2013-04-14 23:30:00,
2013-04-14 18:35:00,32.4,30.1,29.54,East,84,0.0,0.0,91,0.07,RA,,0.36,WeatherDisplay:10.37,2013-04-14 23:35:00,
2013-04-14 18:40:00,32.4,30.1,29.53,ESE,102,0.0,0.0,91,0.06,RA,,0.36,WeatherDisplay:10.37,2013-04-14 23:40:00,
2013-04-14 18:45:00,32.5,30.2,29.53,East,83,0.0,0.0,91,0.07,RA,,0.37,WeatherDisplay:10.37,2013-04-14 23:45:00,
2013-04-14 18:50:00,32.5,30.2,29.53,ESE,109,0.0,0.0,91,0.06,RA,,0.37,WeatherDisplay:10.37,2013-04-14 23:50:00,
2013-04-14 18:55:00,32.5,30.2,29.52,ENE,67,0.0,0.0,91,0.06,CLR,,0.38,WeatherDisplay:10.37,2013-04-14 23:55:00,
2013-04-14 19:00:00,32.5,30.2,29.52,ESE,111,0.0,0.0,91,0.06,RA,,0.38,WeatherDisplay:10.37,2013-04-15 00:00:00,
2013-04-14 19:05:00,32.6,30.3,29.51,ENE,60,0.0,0.0,91,0.06,RA,,0.38,WeatherDisplay:10.37,2013-04-15 00:05:00,
2013-04-14 19:10:00,32.6,30.3,29.53,East,87,0.0,0.0,91,0.05,CLR,,0.38,WeatherDisplay:10.37,2013-04-15 00:10:00,
2013-04-14 19:16:00,32.7,30.4,29.54,ESE,102,0.0,0.0,91,0.04,CLR,,0.38,WeatherDisplay:10.37,2013-04-15 00:16:00,
2013-04-14 19:22:00,32.8,30.5,29.54,ENE,69,0.0,0.0,91,0.03,CLR,,0.38,WeatherDisplay:10.37,2013-04-15 00:22:00,
2013-04-14 19:27:00,32.8,30.5,29.53,East,95,0.0,0.0,91,0.03,CLR,,0.38,WeatherDisplay:10.37,2013-04-15 00:27:00,
2013-04-14 19:32:00,32.9,30.6,29.53,ENE,73,10.4,10.4,91,0.03,CLR,,0.38,WeatherDisplay:10.37,2013-04-15 00:32:00,
2013-04-14 19:37:00,33.0,30.7,29.52,East,87,9.2,9.2,91,0.02,CLR,,0.38,WeatherDisplay:10.37,2013-04-15 00:37:00,
2013-04-14 19:42:00,32.9,30.3,29.53,SE,128,13.8,13.8,90,0.01,CLR,,0.38,WeatherDisplay:10.37,2013-04-15 00:42:00,
2013-04-14 19:48:00,32.9,30.3,29.52,East,86,17.3,17.3,90,0.01,CLR,,0.38,WeatherDisplay:10.37,2013-04-15 00:48:00,
2013-04-14 19:53:00,33.0,30.4,29.53,ENE,71,15.0,15.0,90,0.02,RA,,0.39,WeatherDisplay:10.37,2013-04-15 00:53:00,
2013-04-14 19:58:00,33.0,30.4,29.52,East,94,19.6,19.6,90,0.01,RA,,0.39,WeatherDisplay:10.37,2013-04-15 00:58:00,
2013-04-14 20:03:00,33.0,30.4,29.53,East,92,17.3,17.3,90,0.01,CLR,,0.39,WeatherDisplay:10.37,2013-04-15 01:03:00,
2013-04-14 20:08:00,33.0,30.4,29.54,SE,136,1.2,1.2,90,0.01,CLR,,0.39,WeatherDisplay:10.37,2013-04-15 01:08:00,
2013-04-14 20:13:00,33.0,30.4,29.54,SSE,154,3.5,3.5,90,0.01,CLR,,0.39,WeatherDisplay:10.37,2013-04-15 01:13:00,
2013-04-14 20:18:00,33.2,30.9,29.55,SE,129,3.5,3.5,91,0.01,CLR,,0.39,WeatherDisplay:10.37,2013-04-15 01:18:00,
2013-04-14 20:23:00,33.2,30.9,29.55,SE,144,1.2,1.2,91,0.01,CLR,,0.39,WeatherDisplay:10.37,2013-04-15 01:23:00,
2013-04-14 20:28:00,33.2,30.9,29.54,East,91,6.0,6.0,91,0.01,CLR,,0.39,WeatherDisplay:10.37,2013-04-15 01:28:00,
2013-04-14 20:33:00,33.3,31.0,29.53,ESE,111,10.4,10.4,91,0.01,CLR,,0.39,WeatherDisplay:10.37,2013-04-15 01:33:00,
2013-04-14 20:38:00,33.3,31.0,29.54,East,83,15.0,15.0,91,0.01,CLR,,0.39,WeatherDisplay:10.37,2013-04-15 01:38:00,
2013-04-14 20:43:00,33.4,31.1,29.53,East,97,3.5,3.5,91,0.01,CLR,,0.39,WeatherDisplay:10.37,2013-04-15 01:43:00,
2013-04-14 20:48:00,33.4,31.1,29.54,East,92,4.6,4.6,91,0.01,CLR,,0.39,WeatherDisplay:10.37,2013-04-15 01:48:00,
2013-04-14 20:53:00,33.4,31.1,29.55,ESE,121,10.4,10.4,91,0.00,CLR,,0.39,WeatherDisplay:10.37,2013-04-15 01:53:00,
2013-04-14 20:58:00,33.4,31.1,29.56,South,171,8.1,8.1,91,0.00,CLR,,0.39,WeatherDisplay:10.37,2013-04-15 01:58:00,
2013-04-14 21:03:00,33.5,31.2,29.57,SE,132,3.5,3.5,91,0.01,RA,,0.40,WeatherDisplay:10.37,2013-04-15 02:03:00,
2013-04-14 21:08:00,33.7,31.4,29.57,East,99,11.5,11.5,91,0.01,RA,,0.40,WeatherDisplay:10.37,2013-04-15 02:08:00,
2013-04-14 21:13:00,33.8,31.5,29.56,SE,124,6.9,6.9,91,0.01,,,0.40,WeatherDisplay:10.37,2013-04-15 02:13:00,
2013-04-14 21:18:00,33.8,31.5,29.56,ESE,123,5.8,5.8,91,0.01,CLR,,0.40,WeatherDisplay:10.37,2013-04-15 02:18:00,
2013-04-14 21:23:00,34.0,31.6,29.55,SE,130,18.4,18.4,91,0.01,CLR,,0.40,WeatherDisplay:10.37,2013-04-15 02:23:00,
2013-04-14 21:28:00,34.2,31.8,29.55,SE,133,17.3,17.3,91,0.01,CLR,,0.40,WeatherDisplay:10.37,2013-04-15 02:28:00,
2013-04-14 21:33:00,34.4,32.0,29.56,SE,138,18.4,18.4,91,0.01,CLR,,0.40,WeatherDisplay:10.37,2013-04-15 02:33:00,
2013-04-14 21:38:00,34.4,32.0,29.57,SE,132,18.4,18.4,91,0.01,CLR,,0.40,WeatherDisplay:10.37,2013-04-15 02:38:00,
2013-04-14 21:43:00,34.4,32.0,29.57,SE,146,6.9,6.9,91,0.02,RA,,0.41,WeatherDisplay:10.37,2013-04-15 02:43:00,
2013-04-14 21:48:00,34.4,32.0,29.58,South,180,12.7,12.7,91,0.02,RA,,0.41,WeatherDisplay:10.37,2013-04-15 02:48:00,
2013-04-14 21:53:00,34.6,32.2,29.57,ESE,119,5.8,5.8,91,0.02,,,0.41,WeatherDisplay:10.37,2013-04-15 02:53:00,
2013-04-14 21:58:00,34.9,32.5,29.57,SSW,202,16.1,16.1,91,0.02,CLR,,0.41,WeatherDisplay:10.37,2013-04-15 02:58:00,
2013-04-14 22:03:00,35.1,32.7,29.57,SSE,157,16.1,16.1,91,0.01,CLR,,0.41,WeatherDisplay:10.37,2013-04-15 03:03:00,
2013-04-14 22:08:00,35.3,32.9,29.57,SE,142,5.8,5.8,91,0.01,CLR,,0.41,WeatherDisplay:10.37,2013-04-15 03:08:00,
2013-04-14 22:13:00,35.5,33.1,29.58,SSE,156,3.5,3.5,91,0.01,CLR,,0.41,WeatherDisplay:10.37,2013-04-15 03:13:00,
2013-04-14 22:18:00,35.7,33.3,29.58,SSE,161,2.3,2.3,91,0.01,CLR,,0.41,WeatherDisplay:10.37,2013-04-15 03:18:00,
2013-04-14 22:23:00,35.9,33.5,29.58,SSW,197,3.5,3.5,91,0.01,CLR,,0.41,WeatherDisplay:10.37,2013-04-15 03:23:00,
2013-04-14 22:28:00,36.2,34.1,29.58,South,179,4.6,4.6,92,0.01,CLR,,0.41,WeatherDisplay:10.37,2013-04-15 03:28:00,
2013-04-14 22:33:00,36.4,34.0,29.58,SSW,197,5.8,5.8,91,0.01,CLR,,0.41,WeatherDisplay:10.37,2013-04-15 03:33:00,
2013-04-14 22:38:00,36.5,34.1,29.58,South,183,5.8,5.8,91,0.01,CLR,,0.41,WeatherDisplay:10.37,2013-04-15 03:38:00,
2013-04-14 22:43:00,36.6,34.2,29.58,SW,225,3.5,3.5,91,0.00,CLR,,0.41,WeatherDisplay:10.37,2013-04-15 03:43:00,
2013-04-14 22:48:00,36.6,34.2,29.58,SW,228,2.3,2.3,91,0.00,CLR,,0.41,WeatherDisplay:10.37,2013-04-15 03:48:00,
2013-04-14 22:53:00,36.6,34.2,29.58,SSW,205,2.3,2.3,91,0.00,CLR,,0.41,WeatherDisplay:10.37,2013-04-15 03:53:00,
2013-04-14 22:58:00,36.6,34.2,29.58,South,180,3.5,3.5,91,0.00,CLR,,0.41,WeatherDisplay:10.37,2013-04-15 03:58:00,
2013-04-14 23:00:00,36.6,34.2,29.58,SW,233,3.5,3.5,91,0.00,CLR,,0.41,WeatherDisplay:10.37,2013-04-15 04:00:00,
2013-04-14 23:05:00,36.4,33.7,29.59,SW,229,3.5,3.5,90,0.00,CLR,,0.41,WeatherDisplay:10.37,2013-04-15 04:05:00,
2013-04-14 23:10:00,36.4,33.7,29.58,South,176,2.3,2.3,90,0.00,CLR,,0.41,WeatherDisplay:10.37,2013-04-15 04:10:00,
2013-04-14 23:15:00,36.3,33.6,29.58,SSW,192,2.3,2.3,90,0.00,CLR,,0.41,WeatherDisplay:10.37,2013-04-15 04:15:00,
2013-04-14 23:20:00,36.2,33.5,29.58,SW,226,3.5,3.5,90,0.00,CLR,,0.41,WeatherDisplay:10.37,2013-04-15 04:20:00,
2013-04-14 23:25:00,36.1,33.2,29.58,South,171,1.2,1.2,89,0.00,CLR,,0.41,WeatherDisplay:10.37,2013-04-15 04:25:00,
2013-04-14 23:30:00,36.0,33.1,29.58,South,173,1.2,1.2,89,0.00,CLR,,0.41,WeatherDisplay:10.37,2013-04-15 04:30:00,
2013-04-14 23:35:00,36.0,33.1,29.58,SSW,210,3.5,3.5,89,0.00,CLR,,0.41,WeatherDisplay:10.37,2013-04-15 04:35:00,
2013-04-14 23:40:00,35.8,32.9,29.58,SW,214,1.2,1.2,89,0.00,CLR,,0.41,WeatherDisplay:10.37,2013-04-15 04:40:00,
2013-04-14 23:46:00,35.7,32.8,29.58,South,178,3.5,3.5,89,0.00,CLR,,0.41,WeatherDisplay:10.37,2013-04-15 04:46:00,
2013-04-14 23:51:00,35.5,32.6,29.58,South,191,1.2,1.2,89,0.00,CLR,,0.41,WeatherDisplay:10.37,2013-04-15 04:51:00,
2013-04-14 23:56:00,35.5,32.6,29.58,SSE,151,3.5,3.5,89,0.00,CLR,,0.41,WeatherDisplay:10.37,2013-04-15 04:56:00,